Regional Weather Roundup
Issued by NWS Wakefield, VA

Home | Current Version | Previous Version | Graphics & Text | Print | Product List | Glossary On
Versions: 1 2 3 4 5 6 7 8 9 10 11 12 13 14 15 16 17 18 19 20 21 22 23 24 25 26 27
000
ASUS41 KAKQ 220014
RWRAKQ

REGIONAL WEATHER ROUNDUP
NATIONAL WEATHER SERVICE WAKEFIELD VA
800 PM EDT TUE MAR 21 2017

Note: "fair" indicates few or no clouds below 12,000 feet with no
significant weather and/or obstructions to visibility. * = Denotes
station may not report precipitation (e.g., rain,snow,etc.),
thunder or fog.

VAZ042-051-052>054-056-220100-
NORTHERN VIRGINIA

CITY           SKY/WX    TMP DP  RH WIND       PRES   REMARKS
WASH NATIONAL  CLOUDY    58  41  53 N8        29.94S
DULLES         CLOUDY    56  37  49 NW6       29.94S
FORT BELVOIR   PTCLDY    59  40  48 CALM      29.93S
QUANTICO       MOCLDY    56  44  64 CALM      29.95R
FREDERICKSBRG* CLEAR     56  45  65 CALM      29.94R
STAFFORD*      CLEAR     55  43  63 CALM      29.98R
WARRENTON      CLEAR     56  37  50 N3        29.94R
CULPEPER*      PTCLDY    56  43  62 CALM      29.95R
MANASSAS*      MOCLDY    56  39  53 N5        29.95R
LEESBURG*      CLOUDY    57  41  54 N7        29.95R
WINCHESTER     CLOUDY    54  36  50 W5        29.95S
FRONT ROYAL*   MOCLDY    57  37  47 NW6       29.94R
LURAY*         PTCLDY    57  43  58 N3        29.95R
$$

VAZ048-049-060>072-079>083-220100-
CENTRAL AND SOUTH CENTRAL VIRGINIA

CITY           SKY/WX    TMP DP  RH WIND       PRES   REMARKS
RICHMOND       CLOUDY    58  47  66 NE7       29.93S
CHESTERFIELD*  FAIR      61  36  39 CALM      29.94S
PETERSBURG*    CLEAR     58  46  62 CALM      29.93S
HANOVER        CLEAR     55  44  66 CALM      29.95R
TAPPAHANNOCK*  CLEAR     54  34  46 CALM      29.96R
QUINTON*       FAIR      59  46  63 NE3       29.93S
CHARLOTTSVILLE CLEAR     62  45  53 E3        29.92R
GORDONSVILLE*  CLEAR     55  46  69 CALM      29.93S
ORANGE*        CLEAR     52  45  76 CALM      29.95R
LOUISA*        MOCLDY    57  50  77 CALM      29.92S
BUMPASS*       FAIR      53  47  79 CALM      29.94R
FARMVILLE*     CLEAR     62  49  62 CALM      29.91R
CREWE*         FAIR      58  50  74 NE3       29.92R
FORT PICKETT*  FAIR      61  43  50 S5        29.92R
CHASE CITY*    FAIR      61  53  76 CALM      29.90F
CLARKSVILLE*   FAIR      64  52  63 CALM      29.90S
SOUTH HILL*    CLEAR     60  52  73 CALM      29.96S
LAWRENCEVILLE* FAIR      61  49  65 CALM      29.90F
EMPORIA*       CLEAR     61  46  59 CALM      29.93S
$$

VAZ088>098-220100-
SOUTHEAST VIRGINIA

CITY           SKY/WX    TMP DP  RH WIND       PRES   REMARKS
NORFOLK        CLEAR     52  41  66 CALM      29.94R
VIRGINIA BEACH MOCLDY    52  40  63 CALM      29.94R
NORFOLK NAVAL  MOCLDY    50  40  68 CALM      29.96R
WEST POINT*    CLEAR     54  44  68 NE5       29.95S
SALUDA*        FAIR      47  39  73 CALM      29.95R
NEWPORT NEWS   CLEAR     49  40  71 NE5       29.94S
LANGLEY AFB    CLEAR     48  42  80 NE5       29.94S
FORT EUSTIS    CLEAR     54  40  60 SE5       29.91S
WILLIAMSBURG*  CLEAR     55  48  76 CALM      29.94S
HR EXEC AP*    FAIR      52  37  58 E5        29.93S
FRANKLIN*      CLEAR     57  46  67 NE5       29.93S
US460-WAKEFLD  PTCLDY    59  49  69 E3        29.92S
$$

VAZ020-022-025-037-045-220100-
WEST CENTRAL AND SOUTHWEST VIRGINIA

CITY           SKY/WX    TMP DP  RH WIND       PRES   REMARKS
STAUNTON*      CLEAR     58  44  58 N7        29.96R
WAYNESBORO*    CLEAR     59  47  64 N3        29.94R
HOT SPRINGS VA CLEAR     46  34  61 W9        29.99S
LYNCHBURG      CLOUDY    58  46  64 CALM      29.93S
DANVILLE       CLEAR     63  50  62 N7        29.90S
SOUTH BOSTON*  FAIR      67  46  47 CALM      29.90F
MARTINSVILLE   CLEAR     66  47  50 NE5       29.93S
ROANOKE        CLEAR     61  42  49 NW10      29.96F
BLACKSBURG     CLEAR     56  47  73 NW6       30.00S
DUBLIN*        CLEAR     58  48  70 N7        29.99R
MARION*        PTCLDY    61  48  60 NW6       30.02R
HILLSVILLE*    CLEAR     59  48  67 N5        29.96R
RICHLANDS*     FAIR      55  48  76 CALM      30.02R
WISE*          MOCLDY    55  46  71 CALM      30.03S
ABINGDON*      CLOUDY    67  48  51 N9        29.97R
$$

MDZ021>025-VAZ099-100-220100-
SOUTHERN MARYLAND AND THE DELMARVA PENINSULA

CITY           SKY/WX    TMP DP  RH WIND       PRES   REMARKS
PATUXENT RIVER MOCLDY    46  42  86 SW3       29.93S
BAY BRIDGE APT CLOUDY    46  41  81 CALM      29.94R HAZE
LEONARDTOWN    CLOUDY    50  41  71 CALM      29.95S
DOVER          CLOUDY    54  44  69 W5        29.90R
GEORGETOWN     CLOUDY    53  41  63 CALM      29.92S
EASTON         MOCLDY    54  39  58 CALM      29.97R
CAMBRIDGE      MOCLDY    50  43  76 SW5       29.94R
SALISBURY      PTCLDY    50  41  71 CALM      29.93R
OCEAN CITY     PTCLDY    45  35  68 SW6       29.94R
WALLOPS ISLAND CLEAR     44  39  82 S3        29.95R
ACCOMACK*      CLEAR     48  41  78 CALM      29.95R
$$

NCZ012>017-030>032-220100-
NORTH CENTRAL AND EASTERN NORTH CAROLINA

CITY           SKY/WX    TMP DP  RH WIND       PRES   REMARKS
ROANOKE RAPIDS FAIR      64  52  63 NE3       29.90S
RALEIGH        PTCLDY    68  49  50 NE6       29.89R
ELIZABETH CITY CLEAR     55  45  68 E7        29.93S
AHOSKIE*         N/A     62  52  68 CALM      29.91S
EDENTON*       CLEAR     58  47  67 SE7       29.93S
CURRITUCK*     CLEAR     55  44  67 NE5       29.95S
KILL DEVIL HLS NOT AVBL
MANTEO         CLEAR     51  43  72 NE7       29.94F
CAPE HATTERAS  CLEAR     56  44  64 NE8       29.95R
TARBORO*       NOT AVBL
GOLDSBORO      CLEAR     70  53  54 E6        29.86S
WASHINGTON     CLEAR     66  53  61 E7        29.90S
GREENVILLE     CLEAR     68  52  56 CALM      29.92R HAZE
NEW BERN       CLOUDY    70  57  63 SE6       29.91R
WILMINGTON     CLEAR     68  57  68 SW8       29.90R
$$

VAZ048-220100-
ELSEWHERE

CITY           SKY/WX    TMP DP  RH WIND       PRES   REMARKS
HARRISBURG PA  PTCLDY    53  37  54 SW10      29.89S
BALTIMORE      CLOUDY    55  38  52 CALM      29.93R
ANNAPOLIS      CLOUDY    50  40  68 CALM      29.93R
ANDREWS AFB    CLOUDY    57  38  50 CALM      29.93R
PHILADELPHIA   MOCLDY    55  36  48 W9        29.90R
HENDERSON NC   CLEAR     65  47  53 CALM      29.90S
GREENSBORO     CLEAR     71  49  45 NE5       29.88F
ROCKY MOUNT    CLEAR     67  53  61 CALM      29.89R
$$

VAZ100-220100-
MARINE

STATION/POSITION TIME  TEMP    WIND        PRES    WAVE   SWELL
                       AIR SEA DIR/SP/G            HT/PER HT/PER
                 (UTC) (F)     (DEG/KT/KT) (MB)    (FT/S) (FT/S)
CAPE MAY NJ      2348   45 42  170/  3/  4 1012.5S
LEWES DE         2348          190/  4/  5 1013.0R
OCEAN-CITY-INLET 2348          240/  5/  7 1014.1R
WACHAPREAGUE VA  2348   49 54     CALM     1014.2R
THOMAS POINT MD  0000   51 43  240/  5/  5   N/A
GOOSES REEF MD   2350   49     170/  6/  6 1014.3R
COVE POINT MD    2348   51     210/  6/  6 1014.3R
SOLOMONS ISLAND  2348          120/  2/  3   N/A
BISHOPS HEAD MD  2348   50 50  220/  6/  6 1014.1R
POTOMAC MD       2350   46     190/  4/  4 1013.2R
CAMBRIDGE MD     2348   54 42  180/  2/  2 1012.9R
LEWISETTA VA     2348   50 49  220/  2/  2 1013.7R
RAPPAHANNOCK LGT 2348           20/  8/  8 1014.7R
STINGRAY PT      2350   47     100/  6/  6 1014.3S
YORK RVR RNG VA  2348   49      50/  8/  9 1013.4F
YORKTOWN VA      2348   50 46   70/  7/  7 1013.6S
JAMESTOWN VA     2350   56     120/  6/ 10   N/A
DOMINION TERM VA 2348   53      CALM  /  2 1013.9R
KIPTOPEKE VA     2348           80/  8/  9   N/A
CHES BAY BRIDGE  2348   50 47  260/  1/  3 1014.0R
CAPE HENRY VA    2348   52      60/  4/  5   N/A
WILLOUBY STN VA  2348   50      30/  8/  8 1014.8R
S CRANEY ISL VA  2348   52      40/  3/  3 1013.8R
CAPE HENRY BUOY  2342      48                N/A     2/10   2/12
OFFSHORE WE BUOY 2351      47                N/A     3/10   2/11
64NM E OF VA BCH 2350   49 49  350/  8/  8 1013.4F   4/10   5/10
DUCK PIER NC     2348   51 49   30/  6/  6 1013.2F
44100 DUCK FRF   2305      47                N/A     4/11   3/11
44056 DUCK FRF   2330      49                N/A     3/11   2/11
OREGON INLET NC  2336   51 51   30/  6/  8 1013.8R
HATTERAS NC      2348           60/  7/ 12 1013.9R
DIAMOND SHLS NC  2350   58 68   30/ 10/ 12 1014.4    5/11   5/11
CAPE LOOKOUT NC  2300   59     310/  2/  3 1012.6R
$$




USA.gov is the U.S. government's official web portal to all federal, state and local government web resources and services.